GFSGL_prec_precacc_030.txt.gz
Total_Precipitation_Accumulation
0.00 0.00 0.00 0.00 0.00 0.00 0.00 0.00 0.00 0.00 0.00 0.00 0.00 0.00 0.00 0.00 0.00 0.00 0.00 0.00 0.00 0.00 0.00 0.00 0.04 0.06 0.15 0.15 0.16 0.16 0.19 0.30 0.45 0.23 0.20 0.25 0.22 0.17 0.21 0.21 0.21 0.10 0.08
0.00 0.00 0.00 0.00 0.00 0.00 0.00 0.00 0.00 0.00 0.00 0.00 0.00 0.00 0.00 0.00 0.00 0.00 0.00 0.00 0.00 0.00 0.00 0.01 0.06 0.12 0.16 0.26 0.30 0.29 0.30 0.31 0.52 0.53 0.42 0.38 0.27 0.20 0.20 0.27 0.32 0.16 0.08
0.00 0.00 0.00 0.00 0.00 0.00 0.00 0.00 0.00 0.00 0.00 0.00 0.00 0.00 0.00 0.00 0.00 0.00 0.00 0.00 0.00 0.00 0.00 0.01 0.05 0.13 0.21 0.26 0.29 0.32 0.39 0.42 0.50 0.57 0.58 0.55 0.40 0.33 0.26 0.27 0.38 0.25 0.07
0.00 0.00 0.00 0.01 0.00 0.00 0.00 0.00 0.00 0.00 0.00 0.00 0.00 0.00 0.00 0.00 0.00 0.00 0.00 0.00 0.00 0.00 0.00 0.01 0.03 0.07 0.21 0.33 0.33 0.32 0.50 0.65 0.63 0.68 0.61 0.72 0.58 0.49 0.52 0.36 0.47 0.37 0.10
0.00 0.00 0.02 0.02 0.01 0.02 0.01 0.00 0.00 0.00 0.01 0.02 0.04 0.02 0.00 0.00 0.00 0.00 0.00 0.00 0.00 0.00 0.00 0.00 0.01 0.07 0.21 0.29 0.40 0.33 0.39 0.47 0.77 0.79 0.77 0.96 0.68 0.53 0.54 0.47 0.58 0.48 0.22
0.00 0.00 0.02 0.02 0.03 0.03 0.03 0.02 0.01 0.01 0.01 0.04 0.08 0.08 0.04 0.02 0.01 0.00 0.00 0.00 0.00 0.00 0.00 0.00 0.01 0.04 0.13 0.19 0.21 0.34 0.47 0.66 0.68 0.70 0.82 0.93 0.71 0.54 0.43 0.49 0.79 0.80 0.62
0.00 0.01 0.02 0.02 0.03 0.05 0.04 0.03 0.03 0.03 0.03 0.06 0.08 0.08 0.07 0.05 0.04 0.02 0.01 0.01 0.00 0.00 0.00 0.00 0.00 0.01 0.03 0.05 0.15 0.27 0.43 0.50 0.47 0.59 0.70 0.63 0.72 0.56 0.45 0.41 0.71 0.94 0.58
0.00 0.00 0.00 0.01 0.01 0.02 0.03 0.03 0.05 0.06 0.07 0.09 0.10 0.08 0.05 0.04 0.05 0.04 0.03 0.01 0.00 0.00 0.00 0.00 0.01 0.01 0.02 0.06 0.06 0.06 0.12 0.34 0.51 0.35 0.49 0.69 0.69 0.51 0.50 0.42 0.56 1.03 0.65
0.00 0.00 0.00 0.00 0.00 0.00 0.03 0.05 0.05 0.08 0.07 0.08 0.11 0.12 0.07 0.02 0.03 0.05 0.04 0.02 0.00 0.00 0.00 0.00 0.02 0.03 0.04 0.13 0.21 0.14 0.07 0.04 0.38 0.73 0.49 0.65 0.94 0.77 0.54 0.61 0.62 1.12 0.97
0.00 0.00 0.00 0.00 0.00 0.00 0.01 0.04 0.07 0.07 0.06 0.09 0.11 0.11 0.08 0.05 0.04 0.04 0.05 0.01 0.00 0.00 0.00 0.00 0.02 0.07 0.09 0.17 0.19 0.17 0.11 0.05 0.07 0.50 0.71 0.66 0.61 0.63 0.58 0.55 0.67 1.23 1.40
0.00 0.00 0.00 0.00 0.00 0.01 0.01 0.02 0.07 0.08 0.06 0.08 0.11 0.12 0.10 0.07 0.05 0.05 0.04 0.02 0.01 0.01 0.00 0.00 0.03 0.07 0.11 0.23 0.28 0.26 0.23 0.17 0.07 0.11 0.75 0.65 0.41 0.55 0.39 0.34 0.63 1.51 1.90
0.00 0.00 0.00 0.00 0.00 0.01 0.03 0.02 0.03 0.08 0.09 0.10 0.13 0.12 0.10 0.06 0.05 0.06 0.06 0.02 0.01 0.01 0.00 0.00 0.03 0.06 0.12 0.28 0.27 0.25 0.24 0.12 0.03 0.05 0.44 0.68 0.43 0.36 0.15 0.15 0.62 1.48 1.74
0.00 0.00 0.00 0.00 0.00 0.00 0.01 0.04 0.04 0.06 0.12 0.13 0.16 0.13 0.13 0.08 0.05 0.08 0.05 0.01 0.01 0.02 0.01 0.01 0.03 0.07 0.09 0.13 0.19 0.26 0.16 0.10 0.06 0.05 0.11 0.51 0.26 0.11 0.08 0.25 0.72 1.82 1.55
0.00 0.00 0.00 0.00 0.00 0.00 0.01 0.03 0.07 0.07 0.12 0.15 0.18 0.16 0.16 0.09 0.08 0.07 0.03 0.00 0.00 0.01 0.00 0.00 0.01 0.06 0.09 0.13 0.15 0.25 0.13 0.20 0.18 0.05 0.05 0.19 0.29 0.16 0.12 0.37 1.00 1.56 1.47
0.00 0.02 0.02 0.01 0.00 0.00 0.01 0.02 0.04 0.08 0.12 0.17 0.16 0.15 0.17 0.09 0.06 0.03 0.02 0.03 0.02 0.00 0.00 0.00 0.01 0.05 0.06 0.09 0.11 0.22 0.17 0.22 0.26 0.12 0.12 0.22 0.29 0.21 0.14 0.29 0.62 1.12 1.22
0.01 0.02 0.05 0.03 0.02 0.01 0.01 0.03 0.10 0.17 0.22 0.26 0.22 0.18 0.14 0.06 0.01 0.01 0.02 0.03 0.01 0.00 0.00 0.01 0.02 0.08 0.10 0.16 0.19 0.19 0.16 0.30 0.32 0.23 0.22 0.23 0.29 0.19 0.19 0.24 0.43 0.87 1.00
0.05 0.03 0.11 0.10 0.08 0.06 0.03 0.06 0.16 0.22 0.29 0.31 0.27 0.19 0.15 0.11 0.03 0.01 0.01 0.00 0.00 0.00 0.00 0.01 0.04 0.11 0.16 0.22 0.24 0.29 0.21 0.28 0.41 0.38 0.26 0.29 0.33 0.27 0.25 0.34 0.42 0.56 0.87
0.10 0.10 0.23 0.27 0.16 0.12 0.09 0.12 0.17 0.22 0.32 0.29 0.25 0.17 0.11 0.06 0.03 0.01 0.00 0.00 0.00 0.00 0.00 0.01 0.03 0.10 0.19 0.29 0.28 0.34 0.25 0.28 0.40 0.50 0.25 0.29 0.33 0.44 0.20 0.36 0.22 0.31 0.62
0.28 0.29 0.37 0.47 0.27 0.17 0.19 0.19 0.24 0.27 0.24 0.20 0.22 0.19 0.07 0.03 0.02 0.00 0.00 0.00 0.00 0.00 0.00 0.00 0.01 0.08 0.18 0.28 0.34 0.41 0.37 0.32 0.48 0.66 0.36 0.26 0.35 0.58 0.25 0.35 0.29 0.26 0.42
0.53 0.49 0.54 0.65 0.44 0.28 0.25 0.21 0.22 0.27 0.24 0.20 0.15 0.10 0.06 0.03 0.01 0.00 0.00 0.00 0.00 0.01 0.00 0.00 0.00 0.06 0.16 0.25 0.31 0.43 0.47 0.42 0.54 0.69 0.47 0.31 0.42 0.43 0.49 0.33 0.23 0.07 0.13
0.56 0.47 0.65 0.61 0.46 0.31 0.23 0.20 0.24 0.25 0.25 0.20 0.08 0.03 0.03 0.01 0.00 0.00 0.00 0.00 0.01 0.00 0.00 0.00 0.00 0.02 0.11 0.24 0.28 0.41 0.53 0.56 0.87 0.75 0.71 0.40 0.53 0.40 0.65 0.33 0.16 0.06 0.08
0.54 0.64 0.57 0.51 0.52 0.40 0.28 0.27 0.24 0.21 0.18 0.11 0.07 0.05 0.02 0.01 0.01 0.01 0.00 0.00 0.00 0.00 0.00 0.00 0.00 0.01 0.04 0.16 0.25 0.33 0.50 0.52 0.70 0.90 0.94 0.53 0.48 0.58 0.57 0.61 0.13 0.06 0.08
0.62 0.60 0.59 0.47 0.45 0.38 0.29 0.24 0.19 0.12 0.09 0.08 0.05 0.03 0.01 0.01 0.01 0.01 0.00 0.00 0.00 0.00 0.00 0.00 0.00 0.00 0.01 0.07 0.17 0.28 0.40 0.51 0.56 0.79 1.00 0.82 0.57 0.61 0.59 0.53 0.18 0.06 0.08
0.61 0.56 0.52 0.46 0.40 0.34 0.28 0.25 0.20 0.12 0.05 0.04 0.03 0.03 0.02 0.01 0.01 0.01 0.01 0.00 0.00 0.00 0.01 0.00 0.00 0.00 0.00 0.02 0.10 0.19 0.29 0.41 0.46 0.52 0.82 0.83 0.75 0.64 0.57 0.38 0.21 0.08 0.06
0.39 0.37 0.33 0.29 0.26 0.25 0.21 0.16 0.15 0.10 0.08 0.06 0.03 0.02 0.01 0.01 0.01 0.01 0.01 0.01 0.01 0.01 0.00 0.00 0.00 0.01 0.01 0.02 0.05 0.08 0.15 0.25 0.38 0.53 0.52 0.64 0.86 0.62 0.44 0.41 0.20 0.11 0.06
0.12 0.11 0.11 0.10 0.09 0.08 0.05 0.06 0.05 0.04 0.04 0.04 0.02 0.02 0.01 0.01 0.01 0.00 0.01 0.01 0.02 0.02 0.01 0.01 0.01 0.02 0.02 0.02 0.03 0.06 0.07 0.12 0.39 0.60 0.51 0.51 0.71 0.74 0.54 0.49 0.29 0.15 0.12

GFSGL_prec_precacc_033.txt.gz
Total_Precipitation_Accumulation
0.00 0.00 0.00 0.00 0.00 0.00 0.00 0.00 0.00 0.00 0.00 0.00 0.00 0.00 0.00 0.00 0.00 0.00 0.00 0.00 0.00 0.00 0.00 0.00 0.04 0.06 0.15 0.15 0.16 0.16 0.19 0.30 0.45 0.23 0.20 0.25 0.22 0.17 0.21 0.21 0.21 0.10 0.08
0.00 0.00 0.00 0.00 0.00 0.00 0.00 0.00 0.00 0.00 0.00 0.00 0.00 0.00 0.00 0.00 0.00 0.00 0.00 0.00 0.00 0.00 0.00 0.01 0.06 0.12 0.16 0.26 0.30 0.29 0.30 0.31 0.52 0.53 0.42 0.38 0.27 0.20 0.20 0.27 0.32 0.16 0.08
0.00 0.00 0.00 0.00 0.00 0.00 0.00 0.00 0.00 0.00 0.00 0.00 0.00 0.00 0.00 0.00 0.00 0.00 0.01 0.00 0.00 0.00 0.00 0.01 0.05 0.13 0.21 0.26 0.29 0.32 0.39 0.42 0.50 0.57 0.58 0.55 0.40 0.33 0.26 0.27 0.38 0.25 0.07
0.00 0.00 0.00 0.01 0.00 0.00 0.00 0.00 0.00 0.00 0.00 0.00 0.00 0.00 0.00 0.00 0.00 0.00 0.00 0.01 0.01 0.01 0.01 0.01 0.03 0.07 0.21 0.33 0.33 0.32 0.50 0.65 0.63 0.68 0.61 0.72 0.58 0.49 0.52 0.36 0.47 0.37 0.10
0.00 0.00 0.02 0.02 0.01 0.02 0.01 0.00 0.00 0.00 0.01 0.02 0.04 0.02 0.00 0.00 0.00 0.00 0.00 0.00 0.02 0.02 0.02 0.02 0.01 0.07 0.21 0.29 0.40 0.33 0.39 0.47 0.77 0.79 0.77 0.96 0.68 0.53 0.54 0.47 0.58 0.48 0.22
0.00 0.00 0.02 0.02 0.03 0.03 0.03 0.02 0.01 0.01 0.01 0.04 0.08 0.08 0.04 0.02 0.01 0.00 0.00 0.00 0.01 0.02 0.03 0.02 0.01 0.04 0.13 0.19 0.21 0.34 0.47 0.66 0.68 0.70 0.82 0.93 0.71 0.54 0.43 0.49 0.79 0.80 0.62
0.00 0.01 0.02 0.02 0.03 0.05 0.04 0.03 0.03 0.03 0.03 0.06 0.08 0.08 0.07 0.05 0.04 0.03 0.03 0.02 0.01 0.00 0.01 0.01 0.00 0.01 0.03 0.05 0.15 0.27 0.43 0.50 0.47 0.59 0.70 0.63 0.72 0.56 0.45 0.41 0.71 0.94 0.58
0.00 0.00 0.00 0.01 0.01 0.02 0.03 0.03 0.05 0.06 0.07 0.09 0.10 0.08 0.05 0.04 0.06 0.09 0.11 0.07 0.04 0.02 0.00 0.00 0.01 0.01 0.02 0.06 0.06 0.06 0.12 0.34 0.51 0.35 0.49 0.69 0.69 0.51 0.50 0.42 0.56 1.03 0.65
0.00 0.00 0.00 0.00 0.00 0.00 0.03 0.05 0.05 0.08 0.07 0.08 0.11 0.12 0.07 0.02 0.05 0.14 0.20 0.19 0.13 0.09 0.04 0.01 0.02 0.03 0.04 0.13 0.21 0.14 0.07 0.04 0.38 0.73 0.49 0.65 0.94 0.77 0.54 0.61 0.62 1.12 0.97
0.00 0.00 0.00 0.00 0.00 0.00 0.01 0.04 0.07 0.07 0.06 0.09 0.11 0.11 0.08 0.05 0.08 0.13 0.27 0.29 0.18 0.15 0.09 0.04 0.03 0.07 0.09 0.17 0.19 0.17 0.11 0.05 0.07 0.50 0.71 0.66 0.61 0.63 0.58 0.55 0.67 1.23 1.41
0.00 0.00 0.00 0.00 0.00 0.01 0.01 0.02 0.07 0.08 0.06 0.08 0.11 0.12 0.10 0.08 0.10 0.14 0.30 0.29 0.18 0.16 0.09 0.02 0.03 0.07 0.11 0.23 0.28 0.26 0.23 0.17 0.07 0.11 0.75 0.65 0.41 0.55 0.39 0.34 0.63 1.53 2.00
0.00 0.00 0.00 0.00 0.00 0.01 0.03 0.02 0.03 0.08 0.09 0.10 0.13 0.12 0.12 0.10 0.12 0.19 0.28 0.26 0.15 0.06 0.02 0.00 0.03 0.06 0.12 0.28 0.27 0.25 0.24 0.12 0.03 0.05 0.44 0.68 0.43 0.36 0.15 0.15 0.62 1.53 2.02
0.01 0.00 0.00 0.00 0.00 0.00 0.01 0.04 0.04 0.06 0.12 0.13 0.16 0.14 0.17 0.14 0.14 0.23 0.23 0.22 0.12 0.04 0.02 0.01 0.03 0.07 0.09 0.13 0.19 0.26 0.16 0.10 0.06 0.05 0.11 0.51 0.26 0.11 0.08 0.25 0.74 1.97 1.80
0.01 0.01 0.00 0.00 0.00 0.00 0.01 0.03 0.07 0.07 0.12 0.15 0.18 0.19 0.23 0.21 0.21 0.31 0.29 0.16 0.09 0.04 0.01 0.00 0.01 0.06 0.09 0.13 0.15 0.25 0.13 0.20 0.18 0.05 0.05 0.19 0.29 0.16 0.12 0.38 1.10 1.73 1.65
0.01 0.02 0.02 0.01 0.00 0.00 0.01 0.02 0.04 0.08 0.12 0.18 0.17 0.18 0.26 0.25 0.25 0.32 0.16 0.10 0.08 0.02 0.01 0.00 0.01 0.05 0.06 0.09 0.11 0.22 0.17 0.22 0.26 0.12 0.12 0.22 0.29 0.21 0.14 0.33 0.78 1.26 1.36
0.02 0.03 0.05 0.03 0.02 0.01 0.01 0.03 0.10 0.18 0.23 0.27 0.26 0.25 0.30 0.27 0.27 0.18 0.08 0.07 0.02 0.00 0.00 0.01 0.02 0.08 0.10 0.16 0.19 0.19 0.16 0.30 0.32 0.23 0.22 0.23 0.29 0.19 0.23 0.32 0.53 0.96 1.09
0.06 0.03 0.12 0.10 0.08 0.07 0.03 0.07 0.17 0.22 0.30 0.33 0.35 0.33 0.32 0.42 0.27 0.13 0.10 0.04 0.00 0.00 0.00 0.01 0.04 0.11 0.16 0.22 0.24 0.29 0.21 0.28 0.41 0.38 0.26 0.29 0.33 0.28 0.30 0.44 0.51 0.63 0.92
0.12 0.12 0.24 0.27 0.16 0.13 0.10 0.13 0.18 0.22 0.36 0.42 0.44 0.34 0.30 0.29 0.19 0.12 0.03 0.00 0.00 0.00 0.00 0.01 0.03 0.10 0.19 0.29 0.28 0.34 0.25 0.28 0.40 0.50 0.25 0.29 0.34 0.45 0.24 0.46 0.32 0.40 0.67
0.31 0.30 0.38 0.48 0.28 0.19 0.20 0.20 0.24 0.28 0.36 0.40 0.40 0.39 0.29 0.19 0.13 0.03 0.00 0.00 0.00 0.00 0.00 0.00 0.01 0.08 0.18 0.28 0.34 0.41 0.37 0.32 0.48 0.66 0.36 0.26 0.35 0.58 0.29 0.43 0.36 0.37 0.50
0.55 0.54 0.56 0.66 0.45 0.30 0.26 0.21 0.23 0.33 0.37 0.36 0.28 0.28 0.27 0.16 0.06 0.00 0.00 0.00 0.00 0.01 0.00 0.00 0.00 0.06 0.16 0.25 0.31 0.43 0.47 0.42 0.54 0.69 0.47 0.31 0.42 0.43 0.51 0.42 0.30 0.13 0.17
0.60 0.51 0.74 0.66 0.49 0.33 0.26 0.24 0.31 0.36 0.39 0.37 0.23 0.13 0.08 0.03 0.01 0.00 0.00 0.00 0.01 0.01 0.00 0.00 0.00 0.02 0.11 0.24 0.28 0.41 0.53 0.56 0.87 0.75 0.71 0.40 0.53 0.40 0.66 0.38 0.22 0.14 0.15
0.58 0.65 0.62 0.59 0.57 0.48 0.41 0.40 0.35 0.31 0.27 0.19 0.16 0.11 0.06 0.02 0.01 0.01 0.00 0.00 0.00 0.01 0.00 0.00 0.00 0.01 0.04 0.16 0.25 0.33 0.50 0.52 0.70 0.90 0.94 0.53 0.48 0.58 0.57 0.63 0.18 0.10 0.14
0.63 0.62 0.62 0.54 0.54 0.51 0.42 0.34 0.27 0.21 0.19 0.15 0.09 0.07 0.02 0.01 0.01 0.01 0.01 0.00 0.00 0.00 0.00 0.00 0.00 0.00 0.01 0.07 0.17 0.28 0.40 0.51 0.56 0.79 1.00 0.82 0.57 0.61 0.59 0.54 0.19 0.08 0.08
0.67 0.59 0.54 0.51 0.50 0.45 0.37 0.36 0.30 0.20 0.13 0.09 0.03 0.03 0.02 0.01 0.01 0.01 0.01 0.00 0.00 0.00 0.01 0.00 0.00 0.00 0.00 0.02 0.10 0.19 0.29 0.41 0.46 0.52 0.82 0.83 0.75 0.64 0.57 0.38 0.21 0.08 0.06
0.42 0.44 0.40 0.37 0.34 0.32 0.30 0.23 0.18 0.12 0.09 0.06 0.03 0.02 0.01 0.01 0.01 0.01 0.01 0.01 0.01 0.01 0.00 0.00 0.00 0.01 0.01 0.02 0.05 0.08 0.15 0.25 0.38 0.53 0.52 0.64 0.86 0.62 0.44 0.41 0.20 0.12 0.06
0.12 0.12 0.16 0.17 0.18 0.17 0.14 0.15 0.14 0.11 0.09 0.08 0.06 0.06 0.05 0.03 0.03 0.00 0.01 0.01 0.02 0.02 0.01 0.01 0.01 0.02 0.02 0.02 0.03 0.06 0.07 0.12 0.39 0.60 0.51 0.51 0.71 0.74 0.54 0.49 0.29 0.15 0.12

GFSGL_prec_precacc_036.txt.gz
Total_Precipitation_Accumulation
0.00 0.00 0.00 0.00 0.00 0.00 0.00 0.00 0.00 0.00 0.00 0.00 0.00 0.00 0.00 0.00 0.00 0.00 0.00 0.00 0.00 0.00 0.00 0.00 0.04 0.06 0.15 0.15 0.16 0.16 0.19 0.30 0.45 0.23 0.20 0.25 0.22 0.17 0.21 0.21 0.21 0.10 0.08
0.00 0.00 0.00 0.00 0.00 0.00 0.00 0.00 0.00 0.00 0.00 0.00 0.00 0.00 0.00 0.00 0.00 0.00 0.00 0.00 0.00 0.00 0.00 0.01 0.06 0.12 0.16 0.26 0.30 0.29 0.30 0.31 0.52 0.53 0.42 0.38 0.27 0.20 0.20 0.27 0.32 0.16 0.08
0.00 0.00 0.00 0.00 0.00 0.00 0.00 0.00 0.00 0.00 0.00 0.00 0.00 0.00 0.00 0.00 0.00 0.00 0.01 0.00 0.00 0.00 0.00 0.02 0.06 0.14 0.23 0.26 0.29 0.32 0.39 0.42 0.50 0.57 0.58 0.55 0.40 0.33 0.26 0.27 0.38 0.25 0.07
0.00 0.00 0.00 0.01 0.00 0.00 0.00 0.00 0.00 0.00 0.00 0.00 0.00 0.00 0.00 0.00 0.00 0.00 0.00 0.01 0.01 0.01 0.01 0.02 0.05 0.09 0.22 0.34 0.33 0.32 0.50 0.65 0.63 0.68 0.61 0.72 0.58 0.49 0.52 0.36 0.47 0.37 0.10
0.00 0.00 0.02 0.02 0.01 0.02 0.01 0.00 0.00 0.00 0.01 0.02 0.04 0.02 0.00 0.00 0.00 0.00 0.00 0.00 0.02 0.02 0.02 0.03 0.04 0.10 0.25 0.31 0.41 0.33 0.39 0.47 0.77 0.79 0.77 0.96 0.68 0.53 0.54 0.47 0.58 0.48 0.22
0.00 0.00 0.02 0.02 0.03 0.03 0.03 0.02 0.01 0.01 0.01 0.04 0.08 0.08 0.04 0.02 0.01 0.00 0.00 0.00 0.01 0.02 0.03 0.02 0.03 0.09 0.16 0.27 0.27 0.35 0.47 0.66 0.68 0.70 0.82 0.93 0.71 0.54 0.43 0.49 0.79 0.80 0.62
0.00 0.01 0.02 0.02 0.03 0.05 0.04 0.03 0.03 0.03 0.03 0.06 0.08 0.08 0.07 0.05 0.04 0.03 0.03 0.02 0.01 0.00 0.01 0.02 0.02 0.02 0.09 0.10 0.18 0.28 0.43 0.50 0.47 0.59 0.70 0.63 0.72 0.56 0.45 0.41 0.71 0.94 0.58
0.00 0.00 0.00 0.01 0.01 0.02 0.03 0.03 0.05 0.06 0.07 0.09 0.10 0.08 0.05 0.04 0.06 0.09 0.11 0.07 0.04 0.02 0.01 0.01 0.02 0.03 0.05 0.12 0.10 0.06 0.12 0.34 0.51 0.35 0.49 0.69 0.69 0.51 0.50 0.42 0.56 1.03 0.65
0.00 0.00 0.00 0.00 0.00 0.00 0.03 0.05 0.05 0.08 0.07 0.08 0.11 0.12 0.07 0.02 0.05 0.14 0.20 0.20 0.14 0.10 0.05 0.01 0.04 0.07 0.08 0.20 0.25 0.14 0.07 0.04 0.38 0.73 0.49 0.65 0.94 0.77 0.54 0.61 0.62 1.12 0.97
0.00 0.00 0.00 0.00 0.00 0.00 0.01 0.04 0.07 0.07 0.06 0.09 0.11 0.11 0.08 0.05 0.08 0.13 0.27 0.29 0.21 0.19 0.11 0.05 0.07 0.16 0.17 0.24 0.21 0.17 0.11 0.05 0.07 0.50 0.71 0.66 0.61 0.63 0.58 0.55 0.67 1.23 1.41
0.01 0.02 0.01 0.01 0.00 0.01 0.01 0.02 0.07 0.08 0.06 0.08 0.11 0.12 0.10 0.08 0.10 0.14 0.31 0.33 0.25 0.28 0.21 0.09 0.09 0.20 0.23 0.28 0.28 0.26 0.23 0.17 0.07 0.11 0.75 0.65 0.41 0.55 0.39 0.34 0.63 1.53 2.02
0.02 0.02 0.01 0.01 0.00 0.01 0.03 0.02 0.03 0.08 0.09 0.10 0.13 0.12 0.12 0.10 0.12 0.22 0.36 0.42 0.37 0.32 0.26 0.09 0.06 0.13 0.17 0.29 0.27 0.25 0.24 0.12 0.03 0.05 0.44 0.68 0.43 0.36 0.15 0.15 0.62 1.54 2.10
0.03 0.02 0.01 0.01 0.01 0.00 0.01 0.04 0.04 0.06 0.12 0.13 0.16 0.14 0.17 0.15 0.16 0.35 0.41 0.51 0.52 0.41 0.25 0.09 0.06 0.09 0.11 0.13 0.19 0.26 0.16 0.10 0.06 0.05 0.11 0.51 0.26 0.11 0.08 0.25 0.74 2.06 1.97
0.05 0.03 0.02 0.01 0.00 0.00 0.01 0.03 0.07 0.07 0.12 0.15 0.18 0.19 0.24 0.23 0.30 0.49 0.52 0.53 0.43 0.31 0.18 0.07 0.04 0.08 0.10 0.13 0.15 0.25 0.13 0.20 0.18 0.05 0.05 0.19 0.29 0.16 0.12 0.39 1.14 1.78 1.67
0.05 0.04 0.03 0.01 0.00 0.00 0.01 0.02 0.04 0.08 0.12 0.18 0.17 0.18 0.28 0.33 0.41 0.62 0.50 0.29 0.18 0.11 0.07 0.04 0.03 0.05 0.06 0.09 0.11 0.22 0.17 0.22 0.26 0.12 0.12 0.22 0.29 0.22 0.15 0.37 0.81 1.27 1.37
0.08 0.05 0.07 0.04 0.02 0.02 0.02 0.04 0.10 0.18 0.23 0.28 0.28 0.27 0.36 0.44 0.58 0.60 0.26 0.18 0.10 0.05 0.02 0.02 0.02 0.08 0.10 0.16 0.19 0.19 0.16 0.30 0.32 0.23 0.22 0.23 0.30 0.20 0.25 0.37 0.54 0.97 1.09
0.12 0.06 0.13 0.11 0.09 0.07 0.03 0.07 0.17 0.22 0.30 0.34 0.37 0.41 0.46 0.66 0.67 0.33 0.19 0.11 0.06 0.04 0.03 0.02 0.04 0.11 0.16 0.22 0.24 0.29 0.21 0.28 0.41 0.38 0.26 0.29 0.34 0.29 0.35 0.47 0.51 0.63 0.92
0.16 0.19 0.27 0.28 0.17 0.13 0.11 0.13 0.18 0.22 0.36 0.46 0.56 0.44 0.48 0.55 0.35 0.22 0.13 0.07 0.04 0.01 0.00 0.01 0.03 0.10 0.19 0.29 0.28 0.34 0.25 0.28 0.40 0.50 0.25 0.29 0.36 0.49 0.30 0.49 0.32 0.40 0.68
0.36 0.34 0.42 0.53 0.32 0.22 0.21 0.21 0.24 0.28 0.39 0.51 0.52 0.58 0.53 0.35 0.26 0.14 0.03 0.00 0.00 0.00 0.00 0.00 0.01 0.08 0.18 0.28 0.34 0.41 0.37 0.32 0.48 0.66 0.36 0.26 0.38 0.62 0.35 0.47 0.37 0.38 0.51
0.60 0.62 0.63 0.73 0.49 0.33 0.27 0.22 0.24 0.35 0.42 0.46 0.48 0.52 0.45 0.29 0.14 0.02 0.00 0.00 0.01 0.01 0.01 0.01 0.00 0.06 0.16 0.25 0.31 0.43 0.47 0.42 0.54 0.69 0.47 0.31 0.44 0.47 0.58 0.48 0.33 0.15 0.18
0.62 0.56 0.82 0.73 0.54 0.38 0.30 0.27 0.35 0.42 0.48 0.52 0.41 0.23 0.13 0.05 0.01 0.00 0.00 0.00 0.02 0.03 0.01 0.01 0.00 0.02 0.11 0.24 0.28 0.41 0.53 0.56 0.87 0.75 0.71 0.40 0.54 0.44 0.71 0.46 0.29 0.18 0.18
0.60 0.68 0.65 0.65 0.66 0.58 0.50 0.45 0.40 0.35 0.33 0.28 0.28 0.19 0.11 0.03 0.02 0.01 0.00 0.00 0.01 0.01 0.00 0.00 0.00 0.01 0.04 0.16 0.25 0.33 0.50 0.52 0.70 0.90 0.94 0.53 0.49 0.61 0.62 0.71 0.25 0.16 0.17
0.67 0.65 0.64 0.59 0.64 0.62 0.53 0.45 0.41 0.33 0.30 0.24 0.15 0.12 0.03 0.02 0.04 0.04 0.01 0.00 0.00 0.00 0.00 0.00 0.00 0.00 0.01 0.07 0.17 0.28 0.40 0.51 0.56 0.79 1.00 0.82 0.57 0.63 0.63 0.59 0.26 0.12 0.11
0.71 0.64 0.59 0.56 0.59 0.55 0.47 0.46 0.39 0.28 0.19 0.13 0.04 0.03 0.02 0.03 0.06 0.03 0.01 0.01 0.00 0.00 0.01 0.00 0.00 0.00 0.00 0.02 0.10 0.19 0.29 0.41 0.46 0.52 0.82 0.83 0.75 0.64 0.58 0.40 0.26 0.10 0.09
0.43 0.47 0.45 0.44 0.41 0.39 0.35 0.26 0.20 0.15 0.12 0.08 0.04 0.02 0.02 0.05 0.06 0.04 0.01 0.01 0.01 0.01 0.00 0.00 0.00 0.01 0.01 0.02 0.05 0.08 0.15 0.25 0.38 0.53 0.52 0.64 0.86 0.62 0.44 0.42 0.21 0.12 0.07
0.13 0.14 0.19 0.22 0.23 0.22 0.19 0.19 0.19 0.18 0.13 0.09 0.07 0.08 0.11 0.13 0.11 0.05 0.01 0.01 0.02 0.02 0.01 0.01 0.01 0.02 0.02 0.02 0.03 0.06 0.07 0.12 0.39 0.60 0.51 0.51 0.71 0.74 0.54 0.49 0.29 0.15 0.12

GFSGL_prec_precacc_042.txt.gz
Total_Precipitation_Accumulation
0.00 0.00 0.00 0.00 0.00 0.00 0.00 0.00 0.00 0.00 0.00 0.00 0.00 0.00 0.00 0.00 0.00 0.00 0.00 0.00 0.00 0.00 0.00 0.00 0.04 0.06 0.15 0.15 0.16 0.16 0.19 0.30 0.45 0.23 0.20 0.25 0.22 0.17 0.21 0.21 0.21 0.10 0.08
0.00 0.00 0.00 0.00 0.00 0.00 0.00 0.00 0.00 0.00 0.00 0.00 0.00 0.00 0.00 0.00 0.00 0.00 0.00 0.00 0.00 0.00 0.00 0.01 0.06 0.12 0.16 0.26 0.31 0.29 0.30 0.32 0.53 0.53 0.42 0.38 0.27 0.20 0.20 0.27 0.32 0.16 0.08
0.00 0.00 0.00 0.00 0.00 0.00 0.00 0.00 0.00 0.00 0.00 0.00 0.00 0.00 0.00 0.00 0.00 0.00 0.01 0.00 0.00 0.00 0.00 0.02 0.06 0.14 0.23 0.27 0.31 0.34 0.42 0.43 0.52 0.59 0.59 0.55 0.40 0.33 0.26 0.27 0.38 0.25 0.07
0.00 0.00 0.00 0.01 0.00 0.00 0.00 0.00 0.00 0.00 0.00 0.00 0.00 0.00 0.00 0.00 0.00 0.00 0.01 0.02 0.02 0.01 0.01 0.02 0.05 0.09 0.22 0.35 0.37 0.35 0.53 0.69 0.66 0.70 0.62 0.73 0.58 0.49 0.52 0.36 0.47 0.37 0.10
0.00 0.00 0.02 0.02 0.01 0.02 0.01 0.00 0.00 0.00 0.01 0.02 0.04 0.02 0.00 0.00 0.00 0.00 0.01 0.01 0.02 0.02 0.02 0.03 0.04 0.10 0.25 0.31 0.42 0.37 0.43 0.50 0.80 0.82 0.79 0.96 0.68 0.53 0.54 0.47 0.58 0.48 0.22
0.00 0.00 0.02 0.02 0.03 0.03 0.03 0.02 0.01 0.01 0.01 0.04 0.08 0.08 0.04 0.02 0.01 0.01 0.01 0.01 0.01 0.02 0.03 0.02 0.03 0.09 0.16 0.27 0.28 0.38 0.51 0.71 0.72 0.73 0.84 0.94 0.72 0.54 0.43 0.49 0.79 0.80 0.62
0.00 0.01 0.02 0.02 0.03 0.05 0.04 0.03 0.03 0.03 0.03 0.06 0.09 0.09 0.08 0.05 0.06 0.06 0.06 0.04 0.01 0.00 0.01 0.02 0.02 0.02 0.09 0.10 0.24 0.40 0.50 0.56 0.52 0.62 0.72 0.63 0.72 0.56 0.45 0.41 0.71 0.94 0.58
0.00 0.00 0.00 0.01 0.01 0.03 0.03 0.04 0.05 0.07 0.08 0.10 0.11 0.09 0.06 0.06 0.07 0.10 0.13 0.10 0.05 0.02 0.01 0.01 0.02 0.03 0.05 0.13 0.13 0.15 0.21 0.40 0.55 0.37 0.52 0.70 0.69 0.51 0.50 0.42 0.56 1.03 0.65
0.00 0.00 0.01 0.01 0.01 0.01 0.05 0.07 0.07 0.09 0.08 0.09 0.12 0.13 0.08 0.03 0.06 0.15 0.22 0.22 0.15 0.10 0.05 0.01 0.04 0.07 0.09 0.21 0.31 0.21 0.15 0.10 0.43 0.78 0.51 0.68 0.98 0.79 0.54 0.61 0.62 1.12 0.97
0.01 0.01 0.02 0.02 0.03 0.06 0.07 0.09 0.09 0.09 0.09 0.11 0.13 0.12 0.10 0.06 0.09 0.16 0.29 0.31 0.21 0.19 0.11 0.05 0.07 0.17 0.19 0.26 0.30 0.22 0.17 0.11 0.14 0.54 0.75 0.69 0.64 0.65 0.58 0.55 0.67 1.23 1.41
0.02 0.03 0.04 0.05 0.07 0.09 0.07 0.05 0.10 0.11 0.09 0.10 0.13 0.13 0.11 0.08 0.10 0.15 0.32 0.33 0.25 0.29 0.21 0.09 0.10 0.21 0.25 0.32 0.37 0.31 0.26 0.24 0.13 0.16 0.77 0.66 0.41 0.55 0.39 0.34 0.63 1.53 2.02
0.04 0.04 0.04 0.05 0.06 0.08 0.08 0.05 0.04 0.10 0.10 0.11 0.13 0.12 0.13 0.10 0.12 0.22 0.37 0.43 0.41 0.38 0.30 0.13 0.08 0.16 0.23 0.37 0.37 0.35 0.35 0.25 0.13 0.13 0.48 0.69 0.43 0.36 0.15 0.15 0.62 1.54 2.10
0.05 0.05 0.04 0.04 0.04 0.04 0.03 0.05 0.05 0.06 0.13 0.14 0.16 0.14 0.17 0.15 0.16 0.35 0.42 0.56 0.62 0.57 0.40 0.25 0.16 0.20 0.23 0.28 0.34 0.43 0.31 0.19 0.14 0.11 0.14 0.52 0.26 0.11 0.08 0.25 0.74 2.07 1.99
0.07 0.06 0.04 0.04 0.05 0.01 0.02 0.04 0.07 0.08 0.13 0.16 0.18 0.19 0.24 0.23 0.30 0.51 0.57 0.65 0.63 0.54 0.38 0.28 0.21 0.29 0.34 0.32 0.32 0.40 0.21 0.24 0.21 0.07 0.06 0.19 0.29 0.16 0.12 0.39 1.16 1.81 1.68
0.07 0.06 0.05 0.03 0.03 0.01 0.01 0.04 0.05 0.09 0.13 0.19 0.18 0.19 0.29 0.34 0.44 0.73 0.72 0.62 0.53 0.43 0.35 0.30 0.24 0.31 0.36 0.33 0.32 0.29 0.21 0.25 0.28 0.14 0.12 0.22 0.29 0.22 0.15 0.39 0.83 1.28 1.39
0.10 0.08 0.13 0.07 0.03 0.03 0.04 0.05 0.13 0.19 0.25 0.31 0.31 0.30 0.39 0.53 0.79 0.85 0.57 0.59 0.51 0.44 0.34 0.16 0.10 0.18 0.23 0.27 0.24 0.20 0.17 0.31 0.32 0.23 0.22 0.23 0.30 0.20 0.27 0.40 0.55 0.98 1.10
0.15 0.11 0.20 0.16 0.12 0.13 0.08 0.10 0.18 0.23 0.30 0.35 0.41 0.52 0.72 1.00 1.17 0.62 0.50 0.55 0.43 0.31 0.19 0.08 0.11 0.22 0.27 0.27 0.25 0.30 0.21 0.28 0.41 0.38 0.26 0.29 0.34 0.31 0.40 0.49 0.52 0.64 0.94
0.18 0.29 0.33 0.31 0.23 0.22 0.17 0.16 0.19 0.24 0.41 0.58 0.69 0.66 0.78 0.82 0.63 0.45 0.31 0.22 0.31 0.20 0.11 0.10 0.11 0.17 0.23 0.30 0.29 0.35 0.26 0.28 0.40 0.50 0.25 0.29 0.38 0.55 0.34 0.50 0.33 0.41 0.70
0.38 0.38 0.45 0.55 0.38 0.35 0.26 0.22 0.25 0.33 0.54 0.78 0.78 0.87 0.76 0.52 0.42 0.34 0.15 0.03 0.04 0.03 0.03 0.03 0.03 0.09 0.19 0.28 0.34 0.41 0.37 0.32 0.48 0.66 0.37 0.30 0.48 0.75 0.38 0.48 0.38 0.39 0.52
0.62 0.74 0.71 0.78 0.58 0.42 0.33 0.26 0.26 0.41 0.53 0.62 0.63 0.66 0.56 0.34 0.17 0.04 0.01 0.01 0.01 0.01 0.02 0.03 0.03 0.07 0.16 0.25 0.31 0.43 0.47 0.42 0.54 0.71 0.52 0.44 0.66 0.55 0.60 0.49 0.34 0.16 0.20
0.64 0.63 0.98 0.82 0.70 0.56 0.43 0.34 0.40 0.48 0.58 0.66 0.56 0.33 0.16 0.05 0.01 0.00 0.00 0.01 0.06 0.08 0.07 0.07 0.04 0.02 0.11 0.24 0.28 0.41 0.53 0.56 0.89 0.81 0.85 0.59 0.70 0.54 0.77 0.49 0.30 0.19 0.19
0.63 0.75 0.76 0.83 0.84 0.81 0.72 0.61 0.49 0.41 0.39 0.34 0.34 0.24 0.12 0.03 0.02 0.03 0.10 0.19 0.21 0.16 0.09 0.03 0.02 0.03 0.05 0.16 0.25 0.33 0.50 0.54 0.75 1.00 1.09 0.71 0.71 0.78 0.73 0.74 0.26 0.16 0.19
0.69 0.70 0.71 0.71 0.86 0.91 0.82 0.70 0.56 0.43 0.36 0.27 0.17 0.14 0.07 0.06 0.15 0.25 0.22 0.19 0.14 0.07 0.02 0.02 0.04 0.02 0.01 0.07 0.17 0.28 0.40 0.52 0.61 0.90 1.17 1.04 0.77 0.78 0.73 0.64 0.29 0.16 0.14
0.72 0.66 0.63 0.62 0.70 0.69 0.61 0.61 0.52 0.41 0.30 0.23 0.10 0.08 0.12 0.29 0.47 0.25 0.15 0.15 0.15 0.04 0.01 0.01 0.01 0.00 0.00 0.02 0.10 0.19 0.29 0.42 0.50 0.63 0.99 0.99 0.92 0.86 0.73 0.48 0.31 0.15 0.11
0.44 0.48 0.48 0.48 0.47 0.47 0.45 0.35 0.31 0.28 0.25 0.19 0.09 0.08 0.21 0.56 0.54 0.20 0.08 0.11 0.10 0.03 0.03 0.01 0.00 0.01 0.01 0.02 0.05 0.08 0.15 0.25 0.41 0.62 0.67 0.81 1.04 0.81 0.58 0.51 0.28 0.18 0.10
0.13 0.15 0.22 0.25 0.28 0.27 0.23 0.26 0.30 0.31 0.27 0.22 0.18 0.23 0.36 0.53 0.42 0.13 0.05 0.07 0.07 0.06 0.04 0.01 0.01 0.02 0.02 0.02 0.03 0.06 0.07 0.12 0.40 0.66 0.62 0.65 0.88 0.92 0.70 0.61 0.37 0.21 0.17

GFSGL_prec_precacc_048.txt.gz
Total_Precipitation_Accumulation
0.00 0.00 0.00 0.00 0.00 0.00 0.00 0.00 0.00 0.00 0.00 0.00 0.00 0.00 0.00 0.00 0.00 0.00 0.00 0.00 0.00 0.00 0.00 0.00 0.04 0.06 0.15 0.15 0.16 0.16 0.21 0.31 0.46 0.23 0.21 0.26 0.28 0.23 0.22 0.21 0.21 0.10 0.08
0.00 0.00 0.00 0.00 0.00 0.00 0.00 0.00 0.00 0.00 0.00 0.00 0.00 0.00 0.00 0.00 0.00 0.00 0.00 0.00 0.00 0.00 0.00 0.01 0.06 0.12 0.16 0.27 0.31 0.29 0.31 0.35 0.55 0.53 0.42 0.38 0.29 0.26 0.25 0.28 0.32 0.16 0.08
0.00 0.00 0.00 0.00 0.00 0.00 0.00 0.00 0.00 0.00 0.00 0.00 0.00 0.00 0.00 0.00 0.00 0.00 0.01 0.00 0.00 0.00 0.00 0.02 0.06 0.14 0.23 0.28 0.31 0.35 0.42 0.44 0.55 0.61 0.60 0.55 0.40 0.34 0.30 0.28 0.38 0.25 0.07
0.00 0.00 0.00 0.01 0.00 0.00 0.00 0.00 0.00 0.00 0.00 0.00 0.00 0.00 0.00 0.00 0.00 0.00 0.01 0.02 0.02 0.01 0.01 0.02 0.05 0.09 0.22 0.36 0.38 0.38 0.55 0.72 0.68 0.72 0.64 0.73 0.58 0.49 0.52 0.37 0.47 0.37 0.10
0.00 0.00 0.02 0.02 0.01 0.02 0.01 0.00 0.00 0.00 0.01 0.02 0.04 0.02 0.00 0.00 0.00 0.01 0.02 0.02 0.03 0.03 0.02 0.03 0.05 0.11 0.26 0.31 0.43 0.39 0.45 0.52 0.83 0.85 0.79 0.96 0.68 0.53 0.54 0.47 0.58 0.48 0.22
0.00 0.00 0.02 0.02 0.03 0.03 0.03 0.02 0.01 0.01 0.01 0.04 0.09 0.09 0.05 0.03 0.02 0.03 0.05 0.04 0.06 0.08 0.07 0.04 0.05 0.11 0.21 0.32 0.31 0.52 0.65 0.72 0.74 0.76 0.87 0.95 0.72 0.54 0.43 0.49 0.79 0.80 0.62
0.00 0.01 0.02 0.02 0.03 0.05 0.04 0.03 0.04 0.04 0.04 0.07 0.11 0.12 0.11 0.07 0.10 0.11 0.14 0.12 0.07 0.07 0.11 0.13 0.08 0.06 0.14 0.19 0.27 0.41 0.55 0.56 0.52 0.64 0.75 0.65 0.72 0.56 0.45 0.41 0.72 0.94 0.58
0.00 0.00 0.00 0.01 0.01 0.03 0.04 0.04 0.06 0.09 0.13 0.16 0.16 0.11 0.08 0.08 0.12 0.18 0.23 0.21 0.15 0.08 0.06 0.07 0.15 0.13 0.10 0.22 0.25 0.16 0.21 0.40 0.56 0.39 0.53 0.72 0.69 0.51 0.50 0.42 0.56 1.04 0.65
0.00 0.00 0.01 0.01 0.01 0.02 0.06 0.08 0.10 0.14 0.14 0.13 0.15 0.15 0.10 0.05 0.10 0.22 0.32 0.32 0.24 0.17 0.10 0.05 0.07 0.13 0.19 0.24 0.36 0.23 0.15 0.10 0.43 0.81 0.54 0.71 1.01 0.81 0.55 0.62 0.62 1.12 0.98
0.01 0.01 0.02 0.03 0.04 0.07 0.08 0.10 0.11 0.12 0.12 0.14 0.16 0.14 0.12 0.09 0.11 0.20 0.37 0.39 0.28 0.24 0.15 0.08 0.09 0.18 0.21 0.27 0.32 0.23 0.18 0.12 0.14 0.55 0.78 0.73 0.68 0.67 0.61 0.56 0.68 1.24 1.41
0.02 0.04 0.05 0.05 0.08 0.09 0.08 0.07 0.12 0.14 0.12 0.13 0.15 0.14 0.12 0.09 0.11 0.17 0.38 0.41 0.30 0.31 0.23 0.10 0.10 0.22 0.26 0.34 0.38 0.32 0.26 0.25 0.14 0.18 0.79 0.71 0.46 0.58 0.41 0.35 0.63 1.54 2.02
0.05 0.05 0.05 0.05 0.06 0.08 0.10 0.06 0.06 0.12 0.14 0.13 0.15 0.13 0.13 0.10 0.12 0.23 0.38 0.45 0.43 0.40 0.31 0.13 0.08 0.16 0.23 0.38 0.38 0.36 0.36 0.28 0.17 0.15 0.51 0.71 0.46 0.38 0.15 0.16 0.63 1.55 2.11
0.06 0.05 0.05 0.04 0.04 0.04 0.05 0.09 0.10 0.10 0.16 0.16 0.18 0.15 0.18 0.15 0.16 0.35 0.43 0.56 0.62 0.58 0.40 0.26 0.17 0.21 0.24 0.29 0.35 0.44 0.33 0.23 0.18 0.14 0.16 0.54 0.28 0.12 0.09 0.26 0.75 2.08 2.01
0.07 0.06 0.05 0.04 0.07 0.02 0.03 0.07 0.15 0.12 0.16 0.18 0.21 0.22 0.26 0.25 0.32 0.53 0.58 0.66 0.64 0.56 0.40 0.31 0.23 0.31 0.37 0.35 0.35 0.42 0.24 0.28 0.26 0.10 0.09 0.23 0.31 0.17 0.13 0.40 1.17 1.81 1.71
0.07 0.07 0.06 0.03 0.04 0.01 0.02 0.11 0.15 0.12 0.24 0.29 0.24 0.27 0.41 0.47 0.59 0.96 0.84 0.64 0.54 0.43 0.36 0.34 0.29 0.33 0.39 0.35 0.35 0.32 0.25 0.30 0.35 0.19 0.16 0.29 0.36 0.25 0.16 0.40 0.84 1.29 1.39
0.11 0.09 0.15 0.09 0.04 0.05 0.08 0.10 0.23 0.31 0.36 0.39 0.41 0.49 0.61 1.01 1.27 1.18 0.86 0.73 0.58 0.51 0.47 0.38 0.25 0.27 0.28 0.31 0.30 0.26 0.22 0.37 0.36 0.29 0.27 0.28 0.34 0.25 0.30 0.42 0.57 0.99 1.11
0.15 0.13 0.24 0.20 0.14 0.17 0.12 0.14 0.24 0.34 0.43 0.45 0.54 0.78 1.20 1.50 1.38 0.77 0.64 0.70 0.56 0.43 0.45 0.36 0.27 0.35 0.39 0.35 0.33 0.39 0.30 0.37 0.47 0.41 0.31 0.36 0.39 0.34 0.45 0.52 0.53 0.65 0.96
0.18 0.32 0.39 0.37 0.31 0.28 0.22 0.23 0.31 0.36 0.51 0.68 0.85 0.91 1.12 1.07 0.83 0.63 0.38 0.29 0.44 0.45 0.37 0.30 0.31 0.41 0.43 0.45 0.43 0.50 0.39 0.40 0.52 0.59 0.30 0.35 0.43 0.58 0.36 0.53 0.38 0.44 0.76
0.39 0.43 0.51 0.61 0.52 0.55 0.32 0.31 0.36 0.42 0.64 0.88 0.84 0.96 0.94 0.63 0.49 0.47 0.23 0.10 0.20 0.34 0.35 0.36 0.34 0.35 0.40 0.46 0.51 0.55 0.47 0.44 0.61 0.78 0.46 0.36 0.52 0.80 0.45 0.58 0.53 0.53 0.69
0.62 0.81 0.80 0.87 0.70 0.50 0.40 0.34 0.31 0.45 0.57 0.65 0.65 0.70 0.61 0.35 0.19 0.07 0.04 0.05 0.05 0.08 0.09 0.10 0.10 0.14 0.23 0.32 0.39 0.50 0.55 0.48 0.61 0.77 0.57 0.52 0.78 0.70 0.73 0.67 0.48 0.26 0.29
0.64 0.67 1.11 0.91 0.78 0.64 0.53 0.45 0.47 0.53 0.62 0.70 0.60 0.38 0.21 0.07 0.03 0.03 0.03 0.04 0.09 0.10 0.09 0.10 0.06 0.05 0.12 0.25 0.29 0.44 0.58 0.62 0.96 0.91 1.00 0.82 0.85 0.72 0.94 0.68 0.42 0.25 0.20
0.63 0.76 0.78 0.89 0.91 0.88 0.84 0.71 0.56 0.47 0.44 0.39 0.42 0.33 0.23 0.09 0.07 0.08 0.14 0.24 0.25 0.19 0.11 0.06 0.06 0.07 0.09 0.20 0.31 0.43 0.62 0.68 0.98 1.30 1.35 0.85 0.86 0.95 0.84 0.84 0.30 0.17 0.19
0.69 0.70 0.72 0.74 0.94 1.04 0.92 0.77 0.63 0.51 0.45 0.35 0.25 0.23 0.17 0.19 0.28 0.36 0.32 0.28 0.20 0.10 0.04 0.05 0.07 0.03 0.02 0.09 0.23 0.39 0.63 0.88 1.00 1.14 1.30 1.14 0.88 0.83 0.76 0.66 0.30 0.16 0.14
0.72 0.67 0.64 0.65 0.75 0.75 0.65 0.67 0.61 0.53 0.42 0.32 0.18 0.16 0.22 0.41 0.59 0.37 0.24 0.23 0.21 0.06 0.02 0.02 0.01 0.00 0.00 0.04 0.17 0.35 0.56 0.76 0.77 0.79 1.09 1.07 0.94 0.88 0.74 0.49 0.31 0.15 0.11
0.44 0.49 0.48 0.51 0.52 0.55 0.56 0.44 0.40 0.38 0.35 0.28 0.18 0.18 0.33 0.69 0.67 0.34 0.18 0.17 0.14 0.04 0.03 0.02 0.00 0.01 0.01 0.04 0.13 0.21 0.36 0.53 0.63 0.83 0.76 0.85 1.05 0.81 0.58 0.51 0.28 0.18 0.10
0.14 0.16 0.22 0.26 0.31 0.31 0.29 0.33 0.41 0.42 0.35 0.29 0.25 0.29 0.43 0.63 0.56 0.26 0.12 0.11 0.09 0.06 0.04 0.02 0.01 0.02 0.03 0.04 0.07 0.16 0.23 0.30 0.60 0.91 0.76 0.72 0.91 0.93 0.70 0.61 0.37 0.22 0.17